sat.trackr.live / text

‹ back to catalog

STARLINK-32911

NORAD 63096 · 2025-037V

PAYLOAD ACTIVE UNKNOWN

§ Identity

Operator
Country
US
Launch date
2025-02-23
Launch site
AFWTR
Launch vehicle
Mass (kg)
RCS (m²)

Purposes: comms

External: N2YO · Heavens-Above · Gunter

§ Orbital elements

Epoch: 2026-05-25T02:30:52.293024Z

Period
96.11 min
Inclination
70.0004°
Eccentricity
0.0002772
Mean motion
14.98346271 rev/d
Perigee alt
570.1 km
Apogee alt
573.9 km
Semi-major
6,950.1 km
B*
3.5951e-4
RAAN
161.9694°
Arg perigee
255.9199°
Mean anomaly
104.1652°
Rev number
7,003

§ Raw data

STARLINK-329111 63096U 25037V   26145.10477191  .00004201  00000+0  35951-3 0  99912 63096  70.0004 161.9694 0002772 255.9199 104.1652 14.98346271 70035

JSON: /api/v1/satellites/63096 · /tle

For live sub-satellite position, see the globe view (requires WebGL).

§ Visibility from observer

Set your observer location to see the next 7 days of passes ≥ 10°. The values pass through the URL so the page stays shareable.

No JS? Fill the form by hand. The geolocation button needs JavaScript.